Peoria, IL

8:10 AM CDT on August 18, 2017 (GMT -0500)
Greater Peoria Regional

Weather History for KPIA - November, 2012

Change the Weather History Date:

Wednesday, November 14, 2012

  Actual Average Record
Temperature  
Mean Temperature 39 °F 42 °F  
Max Temperature 47 °F 51 °F 75 °F (1971)
Min Temperature 30 °F 34 °F 8 °F (1940)
Degree Days  
Heating Degree Days 26 22  
Month to date heating degree days 311 271  
Since 1 July heating degree days 828 717  
Cooling Degree Days 0 0  
Month to date cooling degree days 0 0  
Year to date cooling degree days 1374 1039  
Moisture  
Dew Point 26 °F    
Average Humidity 62    
Maximum Humidity 78    
Minimum Humidity 45    
Precipitation  
Precipitation 0.00 in 0.11 in 1.57 in (1926)
Month to date precipitation 0.80 1.45  
Year to date precipitation 25.08 32.39  
Snow  
Snow 0.00 in 0.00 in 1.50 in (1972)
Month to date snowfall 0.0 0.1  
Since 1 July snowfall 0.0 0.1  
Since 1 September snowfall 0.0 0.1  
Snow Depth 0.00 in    
Sea Level Pressure  
Sea Level Pressure 30.46 in    
Wind  
Wind Speed 6 mph (SSE)    
Max Wind Speed 14 mph    
Max Gust Speed 17 mph    
Visibility 10 miles    
Events      
T = Trace of Precipitation, MM = Missing Value Source: NWS Daily Summary

Daily Weather History Graph

Daily Weather History Graph

Search for Another Location

Airport or City:

Trip Planner

Search our weather history database for the weather conditions in past years. The results will help you decide how hot, cold, wet, or windy it might be!

Date:

Astronomy

Nov. 14, 2012 Rise Set
Actual Time 6:44 AM CST 4:41 PM CST
Civil Twilight 6:15 AM CST 5:10 PM CST
Nautical Twilight 5:42 AM CST 5:43 PM CST
Astronomical Twilight 5:10 AM CST 6:15 PM CST
Moon 7:34 AM CST (11/14) 5:29 PM CST (11/14)
Length of Visible Light 10h 55m
Length of Day
9h 56m
New Moon, 1% of the Moon is Illuminated
Nov 14
New Moon
Nov 20
First Quarter
Nov 28
Full
Dec 6
Last Quarter
Dec 13
New

Hourly Weather History & Observations

Time (CST) Temp. Windchill Dew Point Humidity Pressure Visibility Wind Dir Wind Speed Gust Speed Precip Events Conditions
12:54 AM 32.0 °F 28.7 °F 25.0 °F 75% 30.50 in 10.0 mi South 3.5 mph - N/A   Clear
1:54 AM 32.0 °F 28.7 °F 24.1 °F 73% 30.50 in 10.0 mi SSE 3.5 mph - N/A   Clear
2:54 AM 32.0 °F - 24.1 °F 73% 30.50 in 10.0 mi Calm Calm - N/A   Clear
3:54 AM 30.9 °F 26.2 °F 24.1 °F 76% 30.50 in 10.0 mi SSE 4.6 mph - N/A   Clear
4:54 AM 30.0 °F 25.2 °F 25.0 °F 82% 30.51 in 10.0 mi South 4.6 mph - N/A   Clear
5:54 AM 30.9 °F 26.2 °F 25.0 °F 79% 30.51 in 10.0 mi SSE 4.6 mph - N/A   Clear
6:54 AM 32.0 °F 28.7 °F 26.1 °F 79% 30.51 in 10.0 mi SSE 3.5 mph - N/A   Clear
7:54 AM 33.1 °F 27.7 °F 26.1 °F 75% 30.52 in 10.0 mi SSE 5.8 mph - N/A   Partly Cloudy
8:54 AM 36.0 °F 30.3 °F 27.0 °F 70% 30.52 in 10.0 mi SSE 6.9 mph - N/A   Partly Cloudy
9:54 AM 39.0 °F 31.8 °F 27.0 °F 62% 30.51 in 10.0 mi South 11.5 mph - N/A   Clear
10:54 AM 42.1 °F 35.7 °F 28.0 °F 58% 30.51 in 10.0 mi South 11.5 mph - N/A   Clear
11:54 AM 44.1 °F 38.1 °F 28.0 °F 53% 30.47 in 10.0 mi SSE 11.5 mph - N/A   Clear
12:54 PM 45.0 °F 39.7 °F 28.0 °F 52% 30.45 in 10.0 mi SSE 10.4 mph - N/A   Clear
1:54 PM 46.0 °F 41.4 °F 27.0 °F 47% 30.43 in 10.0 mi South 9.2 mph - N/A   Clear
2:54 PM 46.0 °F 41.0 °F 27.0 °F 47% 30.42 in 10.0 mi SSE 10.4 mph - N/A   Clear
3:54 PM 45.0 °F 40.6 °F 27.0 °F 49% 30.41 in 10.0 mi South 8.1 mph - N/A   Clear
4:54 PM 41.0 °F 39.0 °F 26.1 °F 55% 30.41 in 10.0 mi SSE 3.5 mph - N/A   Clear
5:54 PM 39.9 °F 37.8 °F 26.1 °F 58% 30.41 in 10.0 mi SSE 3.5 mph - N/A   Clear
6:54 PM 39.0 °F 35.7 °F 27.0 °F 62% 30.41 in 10.0 mi SSE 4.6 mph - N/A   Clear
7:54 PM 37.0 °F 33.3 °F 27.0 °F 67% 30.40 in 10.0 mi SSE 4.6 mph - N/A   Clear
8:54 PM 36.0 °F 31.1 °F 26.1 °F 67% 30.40 in 10.0 mi SSE 5.8 mph - N/A   Clear
9:54 PM 35.1 °F 31.0 °F 26.1 °F 70% 30.40 in 10.0 mi SSE 4.6 mph - N/A   Clear
10:54 PM 34.0 °F 29.8 °F 26.1 °F 73% 30.40 in 10.0 mi SSE 4.6 mph - N/A   Clear
11:54 PM 34.0 °F 28.0 °F 26.1 °F 73% 30.39 in 10.0 mi SSE 6.9 mph - N/A   Clear